COSMOS 1275 DEB, 13488

Orbit data source: Space-Track

COSMOS 1275 DEB, 13488 is space debris in LEO originally from a launch on Thu, 04 Jun 1981 UTC launched from the Plesetsk Missile And Space Complex (PKMTR). Debris objects in space refer to the collection of defunct objects orbiting the Earth. Examples of debris include non-operational satellites, rocket bodies, and fragments generated from explosions, collisions, or faulty payload assembly.

Loading next visibility...
Identifier
13488, 1981-053GJ
Orbit
LEO
Country
Flag of CISCIS
Related business
Manufacturer
Unknown
Mission
Spacecraft
Bus & Motor
Unknown
Mass
Unknown
Launch date (UTC)
1981-06-04 (45 years ago)
Launch vehicle
Unknown
Launch site
Plesetsk Missile And Space Complex (PKMTR)
Object type
Payload
Rocket body
Debris
Shape & HBR
Unknown shape, 0.1 m
Radar Cross Section
Medium (>0.1 m² and <1 m²)

Expand to show TLE details & history
Last TLE update: 8 hours ago

TLE from 8 hours ago
0 COSMOS 1275 DEB
1 13488U 81053GJ  26194.10324235  .00000439  00000-0  60295-3 0  9994
2 13488  83.0835  68.7082 0193416  40.4042 110.0073 13.49018865155820
Epoch: 2026-07-13T02:28Z
TLE epoch observation values (Epoch: 2026-07-13T02:28:40.139Z)
Latitude
27.34358°
Longitude
-83.02963°
Altitude
1,130.962 km
Speed
7.264 km/s
True Right ascension
16h 20m 31s
True Declination
27° 12' 38"
Sunlit
Object was in daylight at epoch
Visualization orbit readout
Latitude
Unknown
Longitude
Unknown
Altitude
Unknown
Speed
Unknown
Apparent Right ascension
Unknown
Apparent Declination
Unknown
Sunlit
N/A
Visualization observer readout
Local Sidereal Time
22:38:44
Azimuth
Unknown
Elevation
Unknown
Doppler factor
Unknown
Orbital elements
Apogee altitude
1,217.166 km
Perigee altitude
928.931 km
Semi-major axis
7,451.186 km
Eccentricity
0.01934
Inclination
83.0835°
RAAN
68.7082°
Arg. of periapsis
40.4042°
True anomaly
112.07238°
Mean anomaly
110.0073°
Eccentric anomaly
111.0416°
Mean motion
3.37447 °/min
Orbital period
106.68 mins
BSTAR
0.00060295
Loading maneuver chart data...
Computing Atmospheric mass density...
Loading historical data...
Loading historical data...
Loading historical data...
Loading historical data...
Loading historical data...
Loading historical data...
Loading historical data...

Documentation

Showing up to 5 results
|